This demonstration page uses our WeatherBlox Daily Observations layout. Learn more.

Left ArrowRight Arrow

Hourly Observations for January 14, 2017

Temp ( °F °C ) Dew Point ( °F °C ) Humidity (%) Winds ( mph kmh ) Pressure ( in mb ) Visibility ( mi km ) Precip ( " mm )
12:53 am 00:53 Clear 17 -8.3 9 -12.8 70 70 Calm 30.58 1036 10 16 0.00 0.00
1:53 am 01:53 Mostly Clear 18 -7.8 10 -12.2 71 71 SSW 3 6 30.58 1036 10 16 0.00 0.00
2:53 am 02:53 Partly Cloudy 17 -8.3 10 -12.2 74 74 Calm 30.58 1036 10 16 0.00 0.00
3:53 am 03:53 Clear 18 -7.8 10 -12.2 71 71 Calm 30.58 1035 10 16 0.00 0.00
4:53 am 04:53 Clear 19 -7.2 9 -12.8 65 65 SSW 3 6 30.56 1035 10 16 0.00 0.00
5:53 am 05:53 Partly Cloudy 19 -7.2 10 -12.2 68 68 Calm 30.56 1035 10 16 0.00 0.00
6:53 am 06:53 Clear 20 -6.7 11 -11.7 68 68 SSW 3 6 30.57 1035 10 16 0.00 0.00
7:53 am 07:53 Clear 20 -6.7 12 -11.1 71 71 SW 3 6 30.58 1035 10 16 0.00 0.00
8:53 am 08:53 Sunny 20 -6.7 13 -10.6 74 74 Calm 30.58 1036 10 16 0.00 0.00
9:53 am 09:53 Sunny 25 -3.9 14 -10 63 63 WSW 3 6 30.59 1036 10 16 0.00 0.00
10:53 am 10:53 Sunny 29 -1.7 14 -10 54 54 SW 5 7 30.59 1036 10 16 0.00 0.00
11:53 am 11:53 Sunny 29 -1.7 14 -10 54 54 WSW 5 7 30.58 1036 10 16 0.00 0.00
12:53 pm 12:53 Sunny 31 -0.6 13 -10.6 47 47 Calm 30.53 1034 10 16 0.00 0.00
1:53 pm 13:53 Sunny 34 1.1 15 -9.4 46 46 SW 5 7 30.50 1033 10 16 0.00 0.00
2:53 pm 14:53 Sunny 35 1.7 15 -9.4 44 44 Calm 30.49 1033 10 16 0.00 0.00
3:53 pm 15:53 Sunny 35 1.7 15 -9.4 44 44 Calm 30.48 1032 10 16 0.00 0.00
4:53 pm 16:53 Mostly Sunny 34 1.1 16 -8.9 48 48 Calm 30.48 1032 10 16 0.00 0.00
5:53 pm 17:53 Mostly Cloudy 33 0.6 16 -8.9 49 49 SSE 3 6 30.50 1033 10 16 0.00 0.00
6:53 pm 18:53 Partly Cloudy 33 0.6 17 -8.3 52 52 SSE 5 7 30.50 1033 10 16 0.00 0.00
7:53 pm 19:53 Clear 32 0 16 -8.9 52 52 SE 5 7 30.49 1032 10 16 0.00 0.00
8:53 pm 20:53 Mostly Clear 30 -1.1 17 -8.3 58 58 Calm 30.47 1032 10 16 0.00 0.00
9:53 pm 21:53 Cloudy 31 -0.6 17 -8.3 56 56 SSE 5 7 30.46 1032 10 16 0.00 0.00
10:53 pm 22:53 Cloudy 30 -1.1 16 -8.9 56 56 S 5 7 30.46 1032 10 16 0.00 0.00
11:53 pm 23:53 Cloudy 30 -1.1 17 -8.3 58 58 SSE 5 7 30.45 1031 10 16 0.00 0.00

Powered by AerisWeather